User: anonymous   Login
Location: Caltech
(34.1382°N, 118.1253°W)
Time: 19:50:00
(UTC-07:00)
Language:

OAO 1 Rocket - Orbit

View from above orbital plane
View from above orbital plane
View from above satellite
View from above satellite

Ground track
Ground track

The orbit data is extracted from the following two-line orbital elements,

1  2144U 66031B   18169.43807811 +.00000031 +00000-0 +14912-4 0  9999
2  2144 035.0432 332.9792 0008393 186.6392 173.4188 14.42675772740607
Epoch (UTC): 18 June 2018 10:30:49
Eccentricity: 0.0008393
inclination: 35.0432°
perigee height: 743 km
apogee height: 755 km
right ascension of ascending node: 332.9792°
argument of perigee: 186.6392°
revolutions per day: 14.42675772
mean anomaly at epoch: 173.4188°
orbit number at epoch: 74060

The dashed part of the orbit path shows where the satellite is in the earth's shadow,  

DLR